Time,TemperatureF,DewpointF,PressureIn,WindDirection,WindDirectionDegrees,WindSpeedMPH,WindSpeedGustMPH,Humidity,HourlyPrecipIn,Conditions,Clouds,dailyrainin,SoftwareType,DateUTC
2013-05-06 00:00:00,61.0,51.5,29.73,WSW,242,0.0,0.0,71,0.00,,CLR,0.00,VWS V14.00,2013-05-06 07:00:00,
2013-05-06 00:01:00,61.1,52.0,29.72,WSW,241,0.0,0.0,72,0.00,,OVC070,0.00,VWS V14.00,2013-05-06 07:01:00,
2013-05-06 00:06:00,60.9,51.5,29.73,WSW,242,0.0,0.0,71,0.00,,OVC070,0.00,VWS V14.00,2013-05-06 07:06:00,
2013-05-06 00:11:00,60.8,51.0,29.73,WSW,242,0.0,0.0,70,0.00,,OVC070,0.00,VWS V14.00,2013-05-06 07:11:00,
2013-05-06 00:16:00,61.0,51.2,29.73,WSW,242,0.0,0.0,70,0.00,,OVC070,0.00,VWS V14.00,2013-05-06 07:16:00,
2013-05-06 00:21:00,61.0,51.2,29.74,WSW,242,0.0,1.0,70,0.00,,OVC070,0.00,VWS V14.00,2013-05-06 07:21:00,
2013-05-06 00:26:00,60.8,51.0,29.74,WSW,242,0.0,1.0,70,0.00,,OVC070,0.00,VWS V14.00,2013-05-06 07:26:00,
2013-05-06 00:30:00,60.8,51.0,29.73,WSW,242,0.0,1.0,70,0.00,,CLR,0.00,VWS V14.00,2013-05-06 07:30:00,
2013-05-06 00:31:00,60.9,51.1,29.73,WSW,242,0.0,0.0,70,0.00,,OVC070,0.00,VWS V14.00,2013-05-06 07:31:00,
2013-05-06 00:36:00,60.8,51.0,29.74,WSW,242,0.0,1.0,70,0.00,,OVC070,0.00,VWS V14.00,2013-05-06 07:36:00,
2013-05-06 00:41:00,60.9,50.7,29.74,WSW,242,0.0,1.0,69,0.00,,OVC070,0.00,VWS V14.00,2013-05-06 07:41:00,
2013-05-06 00:46:00,60.7,50.9,29.73,WSW,241,0.0,1.0,70,0.00,,OVC070,0.00,VWS V14.00,2013-05-06 07:46:00,
2013-05-06 00:51:00,60.6,51.2,29.73,WSW,241,0.0,1.0,71,0.00,,OVC070,0.00,VWS V14.00,2013-05-06 07:51:00,
2013-05-06 00:56:00,60.7,51.2,29.74,WSW,241,0.0,1.0,71,0.00,,OVC070,0.00,VWS V14.00,2013-05-06 07:56:00,
2013-05-06 01:00:00,60.6,51.2,29.74,WSW,241,0.0,1.0,71,0.00,,CLR,0.00,VWS V14.00,2013-05-06 08:00:00,
2013-05-06 01:01:00,60.6,51.2,29.74,WSW,241,0.0,0.0,71,0.00,,OVC070,0.00,VWS V14.00,2013-05-06 08:01:00,
2013-05-06 01:06:00,60.8,51.3,29.73,SSW,209,1.0,3.0,71,0.00,,OVC070,0.00,VWS V14.00,2013-05-06 08:06:00,
2013-05-06 01:11:00,60.5,51.1,29.73,SW,216,0.0,3.0,71,0.00,,OVC070,0.00,VWS V14.00,2013-05-06 08:11:00,
2013-05-06 01:16:00,60.8,51.3,29.74,SW,216,0.0,3.0,71,0.00,,OVC070,0.00,VWS V14.00,2013-05-06 08:16:00,
2013-05-06 01:21:00,60.7,51.2,29.74,SW,216,0.0,3.0,71,0.00,,OVC070,0.00,VWS V14.00,2013-05-06 08:21:00,
2013-05-06 01:26:00,60.8,51.3,29.74,SW,217,0.0,3.0,71,0.00,,OVC070,0.00,VWS V14.00,2013-05-06 08:26:00,
2013-05-06 01:30:00,60.9,51.8,29.75,SW,216,0.0,3.0,72,0.00,,CLR,0.00,VWS V14.00,2013-05-06 08:30:00,
2013-05-06 01:31:00,60.8,51.7,29.74,SW,216,0.0,0.0,72,0.00,,OVC070,0.00,VWS V14.00,2013-05-06 08:31:00,
2013-05-06 01:36:00,60.6,51.9,29.74,SW,216,0.0,0.0,73,0.00,,OVC070,0.00,VWS V14.00,2013-05-06 08:36:00,
2013-05-06 01:41:00,60.7,52.0,29.74,SW,216,0.0,0.0,73,0.00,,OVC070,0.00,VWS V14.00,2013-05-06 08:41:00,
2013-05-06 01:46:00,60.8,52.1,29.74,SW,217,0.0,0.0,73,0.00,,OVC070,0.00,VWS V14.00,2013-05-06 08:46:00,
2013-05-06 01:51:00,60.7,52.4,29.74,SW,216,0.0,0.0,74,0.00,,OVC070,0.00,VWS V14.00,2013-05-06 08:51:00,
2013-05-06 01:56:00,60.8,52.8,29.75,SW,216,0.0,0.0,75,0.00,,OVC070,0.00,VWS V14.00,2013-05-06 08:56:00,
2013-05-06 02:00:00,60.4,52.1,29.74,SW,216,0.0,0.0,74,0.00,,CLR,0.00,VWS V14.00,2013-05-06 09:00:00,
2013-05-06 02:01:00,60.6,52.3,29.74,SW,216,0.0,0.0,74,0.00,,OVC070,0.00,VWS V14.00,2013-05-06 09:01:00,
2013-05-06 02:06:00,60.5,52.5,29.74,SW,217,0.0,0.0,75,0.00,,OVC070,0.00,VWS V14.00,2013-05-06 09:06:00,
2013-05-06 02:11:00,60.4,52.8,29.74,SW,217,0.0,0.0,76,0.00,,OVC070,0.00,VWS V14.00,2013-05-06 09:11:00,
2013-05-06 02:16:00,60.3,52.7,29.74,SW,216,0.0,0.0,76,0.00,,OVC070,0.00,VWS V14.00,2013-05-06 09:16:00,
2013-05-06 02:21:00,60.6,53.0,29.75,SW,216,0.0,0.0,76,0.00,,OVC070,0.00,VWS V14.00,2013-05-06 09:21:00,
2013-05-06 02:26:00,60.6,53.0,29.74,SW,216,0.0,0.0,76,0.00,,OVC070,0.00,VWS V14.00,2013-05-06 09:26:00,
2013-05-06 02:30:00,60.3,52.7,29.74,SW,216,0.0,0.0,76,0.00,,CLR,0.00,VWS V14.00,2013-05-06 09:30:00,
2013-05-06 02:31:00,60.3,52.7,29.74,SW,215,0.0,0.0,76,0.00,,OVC070,0.00,VWS V14.00,2013-05-06 09:31:00,
2013-05-06 02:36:00,60.6,52.6,29.74,SW,216,0.0,0.0,75,0.00,,OVC070,0.00,VWS V14.00,2013-05-06 09:36:00,
2013-05-06 02:41:00,60.6,52.3,29.74,SW,217,0.0,0.0,74,0.00,,OVC070,0.00,VWS V14.00,2013-05-06 09:41:00,
2013-05-06 02:46:00,60.4,52.1,29.74,SW,216,0.0,0.0,74,0.00,,OVC060,0.00,VWS V14.00,2013-05-06 09:46:00,
2013-05-06 02:51:00,60.3,52.0,29.74,SW,216,0.0,0.0,74,0.00,,OVC060,0.00,VWS V14.00,2013-05-06 09:51:00,
2013-05-06 02:56:00,60.3,52.3,29.74,SW,216,0.0,0.0,75,0.00,,OVC060,0.00,VWS V14.00,2013-05-06 09:56:00,
2013-05-06 03:00:00,60.2,52.3,29.74,SW,216,0.0,0.0,75,0.00,,CLR,0.00,VWS V14.00,2013-05-06 10:00:00,
2013-05-06 03:01:00,60.3,52.3,29.74,SW,216,0.0,0.0,75,0.00,,OVC060,0.00,VWS V14.00,2013-05-06 10:01:00,
2013-05-06 03:06:00,60.3,52.3,29.74,SW,216,0.0,0.0,75,0.00,,OVC060,0.00,VWS V14.00,2013-05-06 10:06:00,
2013-05-06 03:11:00,60.3,52.3,29.74,SW,216,0.0,0.0,75,0.00,,OVC060,0.00,VWS V14.00,2013-05-06 10:11:00,
2013-05-06 03:16:00,60.3,52.7,29.74,SW,216,0.0,0.0,76,0.00,,OVC060,0.00,VWS V14.00,2013-05-06 10:16:00,
2013-05-06 03:21:00,60.2,52.6,29.74,SW,216,0.0,0.0,76,0.00,,OVC060,0.00,VWS V14.00,2013-05-06 10:21:00,
2013-05-06 03:26:00,60.2,52.3,29.74,SW,216,0.0,0.0,75,0.00,,OVC060,0.00,VWS V14.00,2013-05-06 10:26:00,
2013-05-06 03:30:00,60.1,52.5,29.74,SW,217,0.0,0.0,76,0.00,,CLR,0.00,VWS V14.00,2013-05-06 10:30:00,
2013-05-06 03:31:00,60.3,52.7,29.74,SW,216,0.0,0.0,76,0.00,,OVC060,0.00,VWS V14.00,2013-05-06 10:31:00,
2013-05-06 03:36:00,60.0,52.4,29.73,SW,216,0.0,0.0,76,0.00,,OVC060,0.00,VWS V14.00,2013-05-06 10:36:00,
2013-05-06 03:41:00,60.1,52.5,29.74,SW,216,0.0,0.0,76,0.00,,OVC060,0.00,VWS V14.00,2013-05-06 10:41:00,
2013-05-06 03:46:00,60.1,52.5,29.74,SW,216,0.0,0.0,76,0.00,,OVC065,0.00,VWS V14.00,2013-05-06 10:46:00,
2013-05-06 03:51:00,60.1,52.5,29.74,SW,216,0.0,0.0,76,0.00,,OVC065,0.00,VWS V14.00,2013-05-06 10:51:00,
2013-05-06 03:56:00,60.0,52.4,29.74,SW,216,0.0,0.0,76,0.00,,OVC065,0.00,VWS V14.00,2013-05-06 10:56:00,
2013-05-06 04:00:00,59.7,52.5,29.73,SW,216,0.0,0.0,77,0.00,,CLR,0.00,VWS V14.00,2013-05-06 11:00:00,
2013-05-06 04:01:00,59.7,52.5,29.74,SW,216,0.0,0.0,77,0.00,,OVC065,0.00,VWS V14.00,2013-05-06 11:01:00,
2013-05-06 04:06:00,59.8,52.2,29.73,SW,216,0.0,0.0,76,0.00,,OVC065,0.00,VWS V14.00,2013-05-06 11:06:00,
2013-05-06 04:11:00,59.9,52.3,29.73,SW,216,0.0,0.0,76,0.00,,OVC065,0.00,VWS V14.00,2013-05-06 11:11:00,
2013-05-06 04:16:00,59.7,52.5,29.73,SW,216,0.0,0.0,77,0.00,,OVC065,0.00,VWS V14.00,2013-05-06 11:16:00,
2013-05-06 04:21:00,59.9,52.7,29.74,SW,216,0.0,0.0,77,0.00,,OVC065,0.00,VWS V14.00,2013-05-06 11:21:00,
2013-05-06 04:26:00,60.0,52.8,29.74,SW,215,0.0,0.0,77,0.00,,OVC065,0.00,VWS V14.00,2013-05-06 11:26:00,
2013-05-06 04:30:00,59.7,52.5,29.74,SW,216,0.0,0.0,77,0.00,,CLR,0.00,VWS V14.00,2013-05-06 11:30:00,
2013-05-06 04:31:00,59.7,52.8,29.74,SW,216,0.0,0.0,78,0.00,,OVC065,0.00,VWS V14.00,2013-05-06 11:31:00,
2013-05-06 04:36:00,59.7,52.8,29.74,SW,216,0.0,0.0,78,0.00,,OVC065,0.00,VWS V14.00,2013-05-06 11:36:00,
2013-05-06 04:41:00,59.7,52.5,29.74,SW,216,0.0,0.0,77,0.00,,OVC065,0.00,VWS V14.00,2013-05-06 11:41:00,
2013-05-06 04:46:00,59.8,52.9,29.74,SW,216,0.0,0.0,78,0.00,,OVC065,0.00,VWS V14.00,2013-05-06 11:46:00,
2013-05-06 04:51:00,59.8,52.6,29.74,SW,216,0.0,0.0,77,0.00,,OVC065,0.00,VWS V14.00,2013-05-06 11:51:00,
2013-05-06 04:56:00,59.7,52.8,29.74,SW,216,0.0,0.0,78,0.00,,OVC065,0.00,VWS V14.00,2013-05-06 11:56:00,
2013-05-06 05:00:00,59.6,52.4,29.74,SW,216,0.0,0.0,77,0.00,,CLR,0.00,VWS V14.00,2013-05-06 12:00:00,
2013-05-06 05:01:00,59.6,52.4,29.74,SW,216,0.0,0.0,77,0.00,,OVC065,0.00,VWS V14.00,2013-05-06 12:01:00,
2013-05-06 05:06:00,59.3,52.1,29.74,SW,216,0.0,0.0,77,0.00,,OVC065,0.00,VWS V14.00,2013-05-06 12:06:00,
2013-05-06 05:11:00,59.7,52.5,29.74,SW,216,0.0,0.0,77,0.00,,OVC065,0.00,VWS V14.00,2013-05-06 12:11:00,
2013-05-06 05:16:00,59.4,52.5,29.74,SW,216,0.0,0.0,78,0.00,,OVC065,0.00,VWS V14.00,2013-05-06 12:16:00,
2013-05-06 05:21:00,59.5,52.6,29.74,SW,216,0.0,0.0,78,0.00,,OVC065,0.00,VWS V14.00,2013-05-06 12:21:00,
2013-05-06 05:26:00,59.3,52.1,29.74,SW,216,0.0,0.0,77,0.00,,OVC065,0.00,VWS V14.00,2013-05-06 12:26:00,
2013-05-06 05:30:00,59.2,52.3,29.74,SW,216,0.0,0.0,78,0.00,,CLR,0.00,VWS V14.00,2013-05-06 12:30:00,
2013-05-06 05:31:00,59.2,52.3,29.74,SW,216,0.0,0.0,78,0.00,,OVC065,0.00,VWS V14.00,2013-05-06 12:31:00,
2013-05-06 05:36:00,59.2,52.3,29.74,SW,216,0.0,0.0,78,0.00,,OVC065,0.00,VWS V14.00,2013-05-06 12:36:00,
2013-05-06 05:41:00,58.9,52.1,29.74,SW,216,0.0,0.0,78,0.00,,OVC065,0.00,VWS V14.00,2013-05-06 12:41:00,
2013-05-06 05:46:00,58.8,52.0,29.74,SW,216,0.0,0.0,78,0.00,,OVC065,0.00,VWS V14.00,2013-05-06 12:46:00,
2013-05-06 05:51:00,58.5,52.4,29.74,SW,217,0.0,0.0,80,0.00,,OVC065,0.00,VWS V14.00,2013-05-06 12:51:00,
2013-05-06 05:56:00,58.3,52.2,29.74,SW,216,0.0,0.0,80,0.00,,OVC065,0.00,VWS V14.00,2013-05-06 12:56:00,
2013-05-06 06:00:00,58.2,52.4,29.74,SW,216,0.0,0.0,81,0.00,,CLR,0.00,VWS V14.00,2013-05-06 13:00:00,
2013-05-06 06:01:00,58.0,52.5,29.74,SW,216,0.0,0.0,82,0.00,,OVC065,0.00,VWS V14.00,2013-05-06 13:01:00,
2013-05-06 06:06:00,57.8,52.7,29.75,SW,216,0.0,0.0,83,0.00,,OVC065,0.00,VWS V14.00,2013-05-06 13:06:00,
2013-05-06 06:11:00,57.7,52.9,29.74,SW,216,0.0,0.0,84,0.00,,OVC065,0.00,VWS V14.00,2013-05-06 13:11:00,
2013-05-06 06:16:00,57.7,52.6,29.75,SW,216,0.0,0.0,83,0.00,,OVC065,0.00,VWS V14.00,2013-05-06 13:16:00,
2013-05-06 06:21:00,57.5,52.7,29.75,SW,216,0.0,0.0,84,0.00,,OVC065,0.00,VWS V14.00,2013-05-06 13:21:00,
2013-05-06 06:26:00,57.2,52.4,29.75,SW,216,0.0,0.0,84,0.00,,OVC065,0.00,VWS V14.00,2013-05-06 13:26:00,
2013-05-06 06:30:00,57.3,52.8,29.75,SW,216,0.0,0.0,85,0.00,,CLR,0.00,VWS V14.00,2013-05-06 13:30:00,
2013-05-06 06:31:00,57.4,52.9,29.75,SW,216,0.0,0.0,85,0.00,,OVC080,0.00,VWS V14.00,2013-05-06 13:31:00,
2013-05-06 06:36:00,57.4,52.9,29.75,SW,216,0.0,0.0,85,0.00,,OVC080,0.00,VWS V14.00,2013-05-06 13:36:00,
2013-05-06 06:41:00,57.4,53.2,29.75,SW,216,0.0,0.0,86,0.00,,OVC080,0.00,VWS V14.00,2013-05-06 13:41:00,
2013-05-06 06:46:00,57.4,52.9,29.75,SW,216,0.0,0.0,85,0.00,,OVC070,0.00,VWS V14.00,2013-05-06 13:46:00,
2013-05-06 06:51:00,57.4,52.9,29.76,SW,216,0.0,0.0,85,0.00,,OVC070,0.00,VWS V14.00,2013-05-06 13:51:00,
2013-05-06 06:56:00,57.5,52.7,29.76,SW,216,0.0,0.0,84,0.00,,OVC070,0.00,VWS V14.00,2013-05-06 13:56:00,
2013-05-06 07:00:00,57.2,52.4,29.76,SW,215,0.0,0.0,84,0.00,,CLR,0.00,VWS V14.00,2013-05-06 14:00:00,
2013-05-06 07:01:00,57.3,52.5,29.76,SW,216,0.0,0.0,84,0.00,,OVC070,0.00,VWS V14.00,2013-05-06 14:01:00,
2013-05-06 07:06:00,57.5,52.7,29.77,SW,216,0.0,0.0,84,0.00,,OVC070,0.00,VWS V14.00,2013-05-06 14:06:00,
2013-05-06 07:11:00,57.4,52.3,29.76,SW,216,0.0,0.0,83,0.00,,OVC070,0.00,VWS V14.00,2013-05-06 14:11:00,
2013-05-06 07:16:00,57.3,52.5,29.77,SW,216,0.0,0.0,84,0.00,,OVC070,0.00,VWS V14.00,2013-05-06 14:16:00,
2013-05-06 07:21:00,57.2,52.4,29.76,SW,216,0.0,0.0,84,0.00,,OVC070,0.00,VWS V14.00,2013-05-06 14:21:00,
2013-05-06 07:26:00,57.2,52.7,29.76,SW,216,0.0,0.0,85,0.00,,OVC070,0.00,VWS V14.00,2013-05-06 14:26:00,
2013-05-06 07:30:00,57.3,52.5,29.77,SW,217,0.0,0.0,84,0.00,,CLR,0.00,VWS V14.00,2013-05-06 14:30:00,
2013-05-06 07:31:00,57.4,52.6,29.77,SW,216,0.0,0.0,84,0.00,,OVC070,0.00,VWS V14.00,2013-05-06 14:31:00,
2013-05-06 07:36:00,57.3,52.5,29.77,SW,215,0.0,0.0,84,0.00,,OVC070,0.00,VWS V14.00,2013-05-06 14:36:00,
2013-05-06 07:41:00,57.5,52.4,29.77,SW,216,0.0,1.0,83,0.00,,OVC070,0.00,VWS V14.00,2013-05-06 14:41:00,
2013-05-06 07:46:00,57.7,52.6,29.77,SW,216,0.0,1.0,83,0.00,,BKN070,0.00,VWS V14.00,2013-05-06 14:46:00,
2013-05-06 07:51:00,57.7,52.6,29.77,SW,216,0.0,1.0,83,0.00,,BKN070,0.00,VWS V14.00,2013-05-06 14:51:00,
2013-05-06 07:56:00,58.0,52.5,29.77,SW,216,0.0,1.0,82,0.00,,BKN070,0.00,VWS V14.00,2013-05-06 14:56:00,
2013-05-06 08:00:00,58.0,52.5,29.77,SW,216,0.0,1.0,82,0.00,,CLR,0.00,VWS V14.00,2013-05-06 15:00:00,
2013-05-06 08:01:00,58.3,52.8,29.77,SW,216,0.0,0.0,82,0.00,,BKN070,0.00,VWS V14.00,2013-05-06 15:01:00,
2013-05-06 08:06:00,58.3,52.8,29.77,SW,216,0.0,0.0,82,0.00,,BKN070,0.00,VWS V14.00,2013-05-06 15:06:00,
2013-05-06 08:11:00,58.5,53.0,29.78,SW,216,0.0,0.0,82,0.00,,BKN070,0.00,VWS V14.00,2013-05-06 15:11:00,
2013-05-06 08:16:00,58.7,53.2,29.77,SSW,196,0.0,0.0,82,0.00,,BKN070,0.00,VWS V14.00,2013-05-06 15:16:00,
2013-05-06 08:21:00,58.7,53.2,29.77,SSW,196,0.0,0.0,82,0.00,,BKN070,0.00,VWS V14.00,2013-05-06 15:21:00,
2013-05-06 08:26:00,59.1,53.6,29.78,SSW,197,0.0,1.0,82,0.00,,BKN070,0.00,VWS V14.00,2013-05-06 15:26:00,
2013-05-06 08:30:00,59.6,53.8,29.77,SSW,195,0.0,1.0,81,0.00,,CLR,0.00,VWS V14.00,2013-05-06 15:30:00,
2013-05-06 08:31:00,59.7,53.9,29.77,SSW,195,0.0,0.0,81,0.00,,BKN070,0.00,VWS V14.00,2013-05-06 15:31:00,
2013-05-06 08:36:00,60.1,54.3,29.77,SSW,194,0.0,1.0,81,0.00,,BKN070,0.00,VWS V14.00,2013-05-06 15:36:00,
2013-05-06 08:41:00,60.6,54.8,29.77,SSW,193,0.0,1.0,81,0.00,,BKN070,0.00,VWS V14.00,2013-05-06 15:41:00,
2013-05-06 08:46:00,60.8,54.6,29.77,SSW,193,0.0,1.0,80,0.00,,FEW075,0.00,VWS V14.00,2013-05-06 15:46:00,
2013-05-06 08:51:00,61.2,54.6,29.78,SSW,193,0.0,1.0,79,0.00,,FEW075,0.00,VWS V14.00,2013-05-06 15:51:00,
2013-05-06 08:56:00,61.5,54.6,29.78,SSW,193,0.0,1.0,78,0.00,,FEW075,0.00,VWS V14.00,2013-05-06 15:56:00,
2013-05-06 09:00:00,61.7,54.8,29.78,SSW,193,0.0,1.0,78,0.00,,CLR,0.00,VWS V14.00,2013-05-06 16:00:00,
2013-05-06 09:01:00,61.6,54.3,29.78,SSW,194,0.0,0.0,77,0.00,,FEW075,0.00,VWS V14.00,2013-05-06 16:01:00,
2013-05-06 09:06:00,61.7,54.1,29.78,SE,140,0.0,0.0,76,0.00,,FEW075,0.00,VWS V14.00,2013-05-06 16:06:00,
2013-05-06 09:11:00,61.9,53.9,29.78,SE,138,0.0,1.0,75,0.00,,FEW075,0.00,VWS V14.00,2013-05-06 16:11:00,
2013-05-06 09:16:00,62.0,53.6,29.78,SE,138,0.0,1.0,74,0.00,,FEW075,0.00,VWS V14.00,2013-05-06 16:16:00,
2013-05-06 09:21:00,62.3,53.9,29.78,SE,138,0.0,1.0,74,0.00,,FEW075,0.00,VWS V14.00,2013-05-06 16:21:00,
2013-05-06 09:26:00,62.4,54.0,29.78,SE,138,0.0,1.0,74,0.00,,FEW075,0.00,VWS V14.00,2013-05-06 16:26:00,
2013-05-06 09:30:00,62.5,54.5,29.78,SE,138,0.0,1.0,75,0.00,,CLR,0.00,VWS V14.00,2013-05-06 16:30:00,
2013-05-06 09:31:00,62.5,53.7,29.78,SE,138,0.0,0.0,73,0.00,,FEW075,0.00,VWS V14.00,2013-05-06 16:31:00,
2013-05-06 09:36:00,63.0,54.2,29.78,SE,138,0.0,0.0,73,0.00,,FEW075,0.00,VWS V14.00,2013-05-06 16:36:00,
2013-05-06 09:41:00,63.2,54.0,29.78,SE,139,0.0,0.0,72,0.00,,FEW075,0.00,VWS V14.00,2013-05-06 16:41:00,
2013-05-06 09:46:00,63.6,54.0,29.78,SE,139,0.0,1.0,71,0.00,,SCT070,0.00,VWS V14.00,2013-05-06 16:46:00,
2013-05-06 09:51:00,63.9,52.7,29.78,SE,126,0.0,1.0,67,0.00,,SCT070,0.00,VWS V14.00,2013-05-06 16:51:00,
2013-05-06 09:56:00,64.2,52.6,29.79,South,172,0.0,2.0,66,0.00,,SCT070,0.00,VWS V14.00,2013-05-06 16:56:00,
2013-05-06 10:00:00,64.3,52.7,29.78,South,175,0.0,2.0,66,0.00,,CLR,0.00,VWS V14.00,2013-05-06 17:00:00,
2013-05-06 10:01:00,64.3,52.7,29.79,South,175,0.0,0.0,66,0.00,,SCT070,0.00,VWS V14.00,2013-05-06 17:01:00,
2013-05-06 10:06:00,64.5,52.9,29.78,South,184,0.0,0.0,66,0.00,,SCT070,0.00,VWS V14.00,2013-05-06 17:06:00,
2013-05-06 10:11:00,64.7,53.1,29.79,South,183,0.0,0.0,66,0.00,,SCT070,0.00,VWS V14.00,2013-05-06 17:11:00,
2013-05-06 10:16:00,65.0,53.0,29.78,South,184,0.0,0.0,65,0.00,,SCT070,0.00,VWS V14.00,2013-05-06 17:16:00,
2013-05-06 10:21:00,65.2,52.3,29.78,South,184,0.0,0.0,63,0.00,,SCT070,0.00,VWS V14.00,2013-05-06 17:21:00,
2013-05-06 10:26:00,65.5,52.2,29.79,South,186,0.0,1.0,62,0.00,,SCT070,0.00,VWS V14.00,2013-05-06 17:26:00,
2013-05-06 10:30:00,66.0,53.1,29.79,South,185,0.0,1.0,63,0.00,,CLR,0.00,VWS V14.00,2013-05-06 17:30:00,
2013-05-06 10:31:00,65.9,53.0,29.79,South,186,0.0,0.0,63,0.00,,SCT070,0.00,VWS V14.00,2013-05-06 17:31:00,
2013-05-06 10:36:00,66.1,52.7,29.79,South,186,0.0,0.0,62,0.00,,SCT070,0.00,VWS V14.00,2013-05-06 17:36:00,
2013-05-06 10:41:00,66.8,53.4,29.79,South,186,0.0,1.0,62,0.00,,SCT070,0.00,VWS V14.00,2013-05-06 17:41:00,
2013-05-06 10:46:00,67.6,54.1,29.79,South,182,0.0,1.0,62,0.00,,BKN070,0.00,VWS V14.00,2013-05-06 17:46:00,
2013-05-06 10:51:00,68.1,53.7,29.79,South,186,1.0,2.0,60,0.00,,BKN070,0.00,VWS V14.00,2013-05-06 17:51:00,
2013-05-06 10:56:00,67.7,53.3,29.79,South,187,0.0,2.0,60,0.00,,BKN070,0.00,VWS V14.00,2013-05-06 17:56:00,
2013-05-06 11:00:00,67.6,53.2,29.79,South,188,0.0,2.0,60,0.00,,CLR,0.00,VWS V14.00,2013-05-06 18:00:00,
2013-05-06 11:01:00,67.8,53.9,29.79,South,188,0.0,0.0,61,0.00,,BKN070,0.00,VWS V14.00,2013-05-06 18:01:00,
2013-05-06 11:06:00,67.6,53.2,29.79,South,188,0.0,1.0,60,0.00,,BKN070,0.00,VWS V14.00,2013-05-06 18:06:00,
2013-05-06 11:11:00,67.5,53.6,29.79,South,188,0.0,1.0,61,0.00,,BKN070,0.00,VWS V14.00,2013-05-06 18:11:00,
2013-05-06 11:16:00,68.2,53.3,29.78,South,188,0.0,1.0,59,0.00,,BKN070,0.00,VWS V14.00,2013-05-06 18:16:00,
2013-05-06 11:21:00,68.6,52.8,29.79,South,188,0.0,1.0,57,0.00,,BKN070,0.00,VWS V14.00,2013-05-06 18:21:00,
2013-05-06 11:26:00,68.3,53.0,29.79,South,188,0.0,1.0,58,0.00,,BKN070,0.00,VWS V14.00,2013-05-06 18:26:00,
2013-05-06 11:30:00,68.5,52.7,29.79,South,189,0.0,1.0,57,0.00,,CLR,0.00,VWS V14.00,2013-05-06 18:30:00,
2013-05-06 11:31:00,68.3,53.0,29.79,South,188,0.0,0.0,58,0.00,,BKN070,0.00,VWS V14.00,2013-05-06 18:31:00,
2013-05-06 11:36:00,68.7,52.9,29.79,SSW,203,0.0,1.0,57,0.00,,BKN070,0.00,VWS V14.00,2013-05-06 18:36:00,
2013-05-06 11:41:00,68.4,52.6,29.79,SW,227,0.0,5.0,57,0.00,,BKN070,0.00,VWS V14.00,2013-05-06 18:41:00,
2013-05-06 11:46:00,68.3,53.0,29.79,SW,218,0.0,5.0,58,0.00,,BKN080,0.00,VWS V14.00,2013-05-06 18:46:00,
2013-05-06 11:51:00,68.2,52.4,29.79,South,177,0.0,5.0,57,0.00,,BKN080,0.00,VWS V14.00,2013-05-06 18:51:00,
2013-05-06 11:56:00,68.3,52.5,29.80,South,189,0.0,5.0,57,0.00,,BKN080,0.00,VWS V14.00,2013-05-06 18:56:00,
2013-05-06 12:00:00,68.6,53.2,29.79,South,183,0.0,5.0,58,0.00,,CLR,0.00,VWS V14.00,2013-05-06 19:00:00,
2013-05-06 12:01:00,68.6,52.8,29.80,South,180,0.0,0.0,57,0.00,,BKN080,0.00,VWS V14.00,2013-05-06 19:01:00,
2013-05-06 12:06:00,68.9,53.1,29.79,South,180,0.0,1.0,57,0.00,,BKN080,0.00,VWS V14.00,2013-05-06 19:06:00,
2013-05-06 12:11:00,69.3,53.9,29.79,South,180,0.0,2.0,58,0.00,,BKN080,0.00,VWS V14.00,2013-05-06 19:11:00,
2013-05-06 12:16:00,69.4,55.4,29.80,SSW,200,2.0,3.0,61,0.00,,BKN080,0.00,VWS V14.00,2013-05-06 19:16:00,
2013-05-06 12:21:00,69.0,56.8,29.79,SSW,209,0.0,4.0,65,0.00,,BKN080,0.00,VWS V14.00,2013-05-06 19:21:00,
2013-05-06 12:26:00,69.0,58.0,29.79,SSW,209,0.0,4.0,68,0.00,,BKN080,0.00,VWS V14.00,2013-05-06 19:26:00,
2013-05-06 12:30:00,69.3,57.0,29.78,SSW,209,0.0,4.0,65,0.00,,CLR,0.00,VWS V14.00,2013-05-06 19:30:00,
2013-05-06 12:31:00,69.1,56.8,29.79,SW,217,0.0,0.0,65,0.00,,BKN080,0.00,VWS V14.00,2013-05-06 19:31:00,
2013-05-06 12:36:00,69.6,56.0,29.79,SW,219,0.0,0.0,62,0.00,,BKN080,0.00,VWS V14.00,2013-05-06 19:36:00,
2013-05-06 12:41:00,69.9,56.8,29.78,SW,218,0.0,1.0,63,0.00,,BKN080,0.00,VWS V14.00,2013-05-06 19:41:00,
2013-05-06 12:46:00,70.3,55.8,29.78,SW,219,0.0,1.0,60,0.00,,BKN065,0.00,VWS V14.00,2013-05-06 19:46:00,
2013-05-06 12:51:00,70.3,55.3,29.78,SW,219,0.0,1.0,59,0.00,,BKN065,0.00,VWS V14.00,2013-05-06 19:51:00,
2013-05-06 12:56:00,70.4,54.9,29.78,SW,219,0.0,1.0,58,0.00,,BKN065,0.00,VWS V14.00,2013-05-06 19:56:00,
2013-05-06 13:00:00,70.8,55.3,29.78,SW,218,0.0,1.0,58,0.00,,CLR,0.00,VWS V14.00,2013-05-06 20:00:00,
2013-05-06 13:01:00,70.3,54.4,29.78,SW,218,0.0,0.0,57,0.00,,BKN065,0.00,VWS V14.00,2013-05-06 20:01:00,
2013-05-06 13:06:00,70.5,56.4,29.78,SW,220,1.0,6.0,61,0.00,,BKN065,0.00,VWS V14.00,2013-05-06 20:06:00,
2013-05-06 13:11:00,70.5,56.0,29.78,SSW,192,1.0,6.0,60,0.00,,BKN065,0.00,VWS V14.00,2013-05-06 20:11:00,
2013-05-06 13:16:00,70.4,55.4,29.78,SSW,211,0.0,6.0,59,0.00,,BKN065,0.00,VWS V14.00,2013-05-06 20:16:00,
2013-05-06 13:21:00,70.4,55.4,29.78,SSW,211,0.0,6.0,59,0.00,,BKN065,0.00,VWS V14.00,2013-05-06 20:21:00,
2013-05-06 13:26:00,70.6,57.0,29.79,SSW,205,0.0,6.0,62,0.00,,BKN065,0.00,VWS V14.00,2013-05-06 20:26:00,
2013-05-06 13:30:00,70.5,56.0,29.79,SSW,203,0.0,6.0,60,0.00,,CLR,0.00,VWS V14.00,2013-05-06 20:30:00,
2013-05-06 13:31:00,70.5,56.0,29.78,SSW,203,0.0,0.0,60,0.00,,BKN065,0.00,VWS V14.00,2013-05-06 20:31:00,
2013-05-06 13:36:00,70.3,57.1,29.78,SSW,204,0.0,0.0,63,0.00,,BKN065,0.00,VWS V14.00,2013-05-06 20:36:00,
2013-05-06 13:41:00,70.3,56.7,29.78,SSW,203,0.0,0.0,62,0.00,,BKN065,0.00,VWS V14.00,2013-05-06 20:41:00,
2013-05-06 13:46:00,70.6,56.1,29.78,SSE,150,1.0,2.0,60,0.00,,OVC100,0.00,VWS V14.00,2013-05-06 20:46:00,
2013-05-06 13:51:00,70.8,55.3,29.79,SSE,150,0.0,2.0,58,0.00,,OVC100,0.00,VWS V14.00,2013-05-06 20:51:00,
2013-05-06 13:56:00,70.4,55.4,29.79,SSE,151,0.0,2.0,59,0.00,,OVC100,0.00,VWS V14.00,2013-05-06 20:56:00,
2013-05-06 14:00:00,70.5,55.0,29.78,SSE,150,0.0,2.0,58,0.00,,CLR,0.00,VWS V14.00,2013-05-06 21:00:00,
2013-05-06 14:01:00,70.3,55.3,29.78,SSE,151,0.0,0.0,59,0.00,,OVC100,0.00,VWS V14.00,2013-05-06 21:01:00,
2013-05-06 14:06:00,70.0,56.0,29.79,SSE,150,0.0,0.0,61,0.00,,OVC100,0.00,VWS V14.00,2013-05-06 21:06:00,
2013-05-06 14:11:00,69.2,61.0,29.80,South,185,3.0,8.0,75,0.01,,OVC100,0.02,VWS V14.00,2013-05-06 21:11:00,
2013-05-06 14:16:00,67.5,61.1,29.80,SSW,212,0.0,8.0,80,0.10,,OVC100,0.12,VWS V14.00,2013-05-06 21:16:00,
2013-05-06 14:21:00,65.8,61.2,29.79,SW,232,0.0,8.0,85,0.14,,OVC100,0.16,VWS V14.00,2013-05-06 21:21:00,
2013-05-06 14:26:00,64.8,60.2,29.79,SW,231,0.0,8.0,85,0.13,,OVC100,0.16,VWS V14.00,2013-05-06 21:26:00,
2013-05-06 14:30:00,64.8,60.2,29.79,SW,232,0.0,8.0,85,0.12,,CLR,0.16,VWS V14.00,2013-05-06 21:30:00,
2013-05-06 14:31:00,64.9,60.9,29.79,SW,232,0.0,0.0,87,0.12,,OVC100,0.16,VWS V14.00,2013-05-06 21:31:00,
2013-05-06 14:36:00,64.2,59.9,29.80,SW,223,0.0,0.0,86,0.11,,OVC100,0.17,VWS V14.00,2013-05-06 21:36:00,
2013-05-06 14:41:00,64.2,59.6,29.79,SW,222,0.0,0.0,85,0.11,,OVC100,0.17,VWS V14.00,2013-05-06 21:41:00,
2013-05-06 14:46:00,64.2,60.3,29.80,SW,223,0.0,0.0,87,0.10,,BKN070,0.17,VWS V14.00,2013-05-06 21:46:00,
2013-05-06 14:51:00,63.9,60.3,29.80,SW,222,0.0,0.0,88,0.11,,BKN070,0.20,VWS V14.00,2013-05-06 21:51:00,
2013-05-06 14:56:00,63.2,60.5,29.80,SW,222,0.0,0.0,91,0.12,,BKN070,0.21,VWS V14.00,2013-05-06 21:56:00,
2013-05-06 15:00:00,63.1,60.7,29.80,SW,222,0.0,0.0,92,0.13,,CLR,0.22,VWS V14.00,2013-05-06 22:00:00,
2013-05-06 15:01:00,63.3,60.6,29.80,SW,222,0.0,0.0,91,0.12,,BKN070,0.22,VWS V14.00,2013-05-06 22:01:00,
2013-05-06 15:06:00,63.2,60.5,29.80,SW,223,0.0,0.0,91,0.11,,BKN070,0.22,VWS V14.00,2013-05-06 22:06:00,
2013-05-06 15:11:00,63.1,60.4,29.79,SW,222,0.0,0.0,91,0.11,,BKN070,0.22,VWS V14.00,2013-05-06 22:11:00,
2013-05-06 15:16:00,62.8,60.1,29.79,SW,223,0.0,0.0,91,0.10,,BKN070,0.22,VWS V14.00,2013-05-06 22:16:00,
2013-05-06 15:21:00,62.7,59.7,29.80,SW,222,0.0,0.0,90,0.09,,BKN070,0.22,VWS V14.00,2013-05-06 22:21:00,
2013-05-06 15:26:00,62.7,60.0,29.80,SW,223,0.0,0.0,91,0.08,,BKN070,0.22,VWS V14.00,2013-05-06 22:26:00,
2013-05-06 15:30:00,62.7,59.4,29.79,WSW,240,0.0,0.0,89,0.08,,CLR,0.22,VWS V14.00,2013-05-06 22:30:00,
2013-05-06 15:31:00,62.8,59.5,29.80,WSW,240,0.0,0.0,89,0.08,,BKN070,0.22,VWS V14.00,2013-05-06 22:31:00,
2013-05-06 15:36:00,62.4,59.7,29.80,WSW,240,0.0,0.0,91,0.07,,BKN070,0.22,VWS V14.00,2013-05-06 22:36:00,
2013-05-06 15:41:00,62.4,60.0,29.79,WSW,240,0.0,0.0,92,0.06,,BKN070,0.22,VWS V14.00,2013-05-06 22:41:00,
2013-05-06 15:46:00,62.1,59.8,29.79,WSW,240,0.0,1.0,92,0.06,,-RA,0.22,VWS V14.00,2013-05-06 22:46:00,
2013-05-06 15:51:00,62.6,60.2,29.79,WSW,240,0.0,1.0,92,0.05,,-RA,0.22,VWS V14.00,2013-05-06 22:51:00,
2013-05-06 15:56:00,62.5,60.2,29.79,WSW,240,0.0,1.0,92,0.06,,-RA,0.23,VWS V14.00,2013-05-06 22:56:00,
2013-05-06 16:00:00,62.3,60.3,29.79,WSW,240,0.0,1.0,93,0.06,,CLR,0.23,VWS V14.00,2013-05-06 23:00:00,
2013-05-06 16:01:00,62.3,59.6,29.79,WSW,240,0.0,0.0,91,0.05,,-RA,0.23,VWS V14.00,2013-05-06 23:01:00,
2013-05-06 16:06:00,62.6,60.2,29.79,WSW,240,0.0,0.0,92,0.05,,-RA,0.23,VWS V14.00,2013-05-06 23:06:00,
2013-05-06 16:11:00,62.0,60.0,29.79,WSW,240,0.0,0.0,93,0.05,,-RA,0.23,VWS V14.00,2013-05-06 23:11:00,
2013-05-06 16:16:00,62.2,59.8,29.79,WSW,242,0.0,1.0,92,0.04,,-RA,0.23,VWS V14.00,2013-05-06 23:16:00,
2013-05-06 16:21:00,61.9,59.9,29.79,WSW,243,0.0,1.0,93,0.07,,-RA,0.26,VWS V14.00,2013-05-06 23:21:00,
2013-05-06 16:26:00,61.5,59.2,29.79,WSW,242,0.0,1.0,92,0.06,,-RA,0.26,VWS V14.00,2013-05-06 23:26:00,
2013-05-06 16:30:00,61.8,59.8,29.78,WSW,243,0.0,1.0,93,0.06,,CLR,0.26,VWS V14.00,2013-05-06 23:30:00,
2013-05-06 16:31:00,61.8,59.8,29.79,WSW,242,0.0,0.0,93,0.06,,-RA,0.26,VWS V14.00,2013-05-06 23:31:00,
2013-05-06 16:36:00,62.0,60.3,29.79,WSW,242,0.0,0.0,94,0.05,,-RA,0.26,VWS V14.00,2013-05-06 23:36:00,
2013-05-06 16:41:00,61.8,60.1,29.78,WSW,242,0.0,0.0,94,0.05,,-RA,0.26,VWS V14.00,2013-05-06 23:41:00,
2013-05-06 16:46:00,61.8,59.8,29.79,WSW,243,0.0,0.0,93,0.04,,-RA,0.26,VWS V14.00,2013-05-06 23:46:00,
2013-05-06 16:51:00,62.1,59.8,29.78,SW,234,0.0,0.0,92,0.04,,-RA,0.26,VWS V14.00,2013-05-06 23:51:00,
2013-05-06 16:56:00,61.9,59.5,29.78,SW,233,0.0,0.0,92,0.04,,-RA,0.26,VWS V14.00,2013-05-06 23:56:00,
2013-05-06 17:00:00,61.7,59.7,29.78,SW,234,0.0,0.0,93,0.04,,CLR,0.26,VWS V14.00,2013-05-07 00:00:00,
2013-05-06 17:01:00,61.5,59.5,29.78,SW,233,0.0,0.0,93,0.03,,-RA,0.26,VWS V14.00,2013-05-07 00:01:00,
2013-05-06 17:06:00,61.7,59.7,29.78,SW,234,0.0,0.0,93,0.03,,-RA,0.26,VWS V14.00,2013-05-07 00:06:00,
2013-05-06 17:11:00,62.1,60.1,29.78,SW,234,0.0,0.0,93,0.03,,-RA,0.26,VWS V14.00,2013-05-07 00:11:00,
2013-05-06 17:16:00,62.0,59.7,29.78,SW,234,0.0,1.0,92,0.03,,-RA,0.26,VWS V14.00,2013-05-07 00:16:00,
2013-05-06 17:21:00,62.9,60.2,29.78,SW,234,0.0,1.0,91,0.03,,-RA,0.26,VWS V14.00,2013-05-07 00:21:00,
2013-05-06 17:26:00,62.7,59.1,29.78,SW,234,0.0,1.0,88,0.02,,-RA,0.26,VWS V14.00,2013-05-07 00:26:00,
2013-05-06 17:30:00,63.3,60.0,29.78,SW,234,0.0,1.0,89,0.02,,CLR,0.26,VWS V14.00,2013-05-07 00:30:00,
2013-05-06 17:31:00,63.0,60.0,29.79,SW,234,0.0,0.0,90,0.02,,-RA,0.26,VWS V14.00,2013-05-07 00:31:00,
2013-05-06 17:36:00,63.2,59.9,29.78,SW,234,0.0,0.0,89,0.02,,-RA,0.26,VWS V14.00,2013-05-07 00:36:00,
2013-05-06 17:41:00,63.1,59.8,29.78,SW,235,0.0,0.0,89,0.02,,-RA,0.26,VWS V14.00,2013-05-07 00:41:00,
2013-05-06 17:46:00,63.2,59.9,29.79,SW,234,0.0,0.0,89,0.02,,-RA,0.26,VWS V14.00,2013-05-07 00:46:00,
2013-05-06 17:51:00,63.5,60.2,29.79,SW,234,0.0,0.0,89,0.02,,-RA,0.26,VWS V14.00,2013-05-07 00:51:00,
2013-05-06 17:56:00,63.6,60.6,29.79,SW,234,0.0,0.0,90,0.01,,-RA,0.26,VWS V14.00,2013-05-07 00:56:00,
2013-05-06 18:00:00,63.7,60.4,29.78,SW,235,0.0,0.0,89,0.01,,CLR,0.26,VWS V14.00,2013-05-07 01:00:00,
2013-05-06 18:01:00,63.7,59.8,29.78,SW,234,0.0,0.0,87,0.01,,-RA,0.26,VWS V14.00,2013-05-07 01:01:00,
2013-05-06 18:06:00,63.8,60.2,29.78,SW,234,0.0,0.0,88,0.01,,-RA,0.26,VWS V14.00,2013-05-07 01:06:00,
2013-05-06 18:11:00,63.5,59.9,29.79,SW,234,0.0,0.0,88,0.01,,-RA,0.26,VWS V14.00,2013-05-07 01:11:00,
2013-05-06 18:16:00,63.3,60.0,29.79,SW,234,0.0,0.0,89,0.01,,-RA,0.26,VWS V14.00,2013-05-07 01:16:00,
2013-05-06 18:21:00,63.7,60.1,29.79,SW,234,0.0,0.0,88,0.01,,-RA,0.26,VWS V14.00,2013-05-07 01:21:00,
2013-05-06 18:26:00,63.7,57.4,29.78,North,356,0.0,5.0,80,0.01,,-RA,0.26,VWS V14.00,2013-05-07 01:26:00,
2013-05-06 18:30:00,63.3,57.0,29.78,WNW,299,0.0,5.0,80,0.01,,CLR,0.26,VWS V14.00,2013-05-07 01:30:00,
2013-05-06 18:31:00,63.4,57.5,29.78,WNW,290,0.0,1.0,81,0.01,,-RA,0.26,VWS V14.00,2013-05-07 01:31:00,
2013-05-06 18:36:00,63.7,57.8,29.78,NNW,338,1.0,1.0,81,0.01,,-RA,0.26,VWS V14.00,2013-05-07 01:36:00,
2013-05-06 18:41:00,63.5,57.6,29.78,NW,320,0.0,3.0,81,0.01,,-RA,0.26,VWS V14.00,2013-05-07 01:41:00,
2013-05-06 18:46:00,63.0,57.1,29.78,NW,320,0.0,3.0,81,0.01,,BKN070,0.26,VWS V14.00,2013-05-07 01:46:00,
2013-05-06 18:51:00,62.8,56.9,29.79,North,353,0.0,6.0,81,0.01,,BKN070,0.26,VWS V14.00,2013-05-07 01:51:00,
2013-05-06 18:56:00,62.6,57.0,29.79,North,353,0.0,6.0,82,0.01,,BKN070,0.26,VWS V14.00,2013-05-07 01:56:00,
2013-05-06 19:00:00,62.7,57.5,29.78,North,353,0.0,6.0,83,0.00,,CLR,0.26,VWS V14.00,2013-05-07 02:00:00,
2013-05-06 19:01:00,62.6,57.4,29.79,North,353,0.0,0.0,83,0.00,,BKN070,0.26,VWS V14.00,2013-05-07 02:01:00,
2013-05-06 19:06:00,62.2,56.0,29.79,North,9,2.0,3.0,80,0.00,,BKN070,0.26,VWS V14.00,2013-05-07 02:06:00,
2013-05-06 19:11:00,62.4,56.5,29.79,North,1,0.0,3.0,81,0.00,,BKN070,0.26,VWS V14.00,2013-05-07 02:11:00,
2013-05-06 19:16:00,62.1,56.2,29.79,North,0,0.0,3.0,81,0.00,,BKN070,0.26,VWS V14.00,2013-05-07 02:16:00,
2013-05-06 19:21:00,62.1,55.9,29.79,North,0,0.0,3.0,80,0.00,,BKN070,0.26,VWS V14.00,2013-05-07 02:21:00,
2013-05-06 19:26:00,61.7,55.8,29.80,NW,320,0.0,3.0,81,0.00,,BKN070,0.26,VWS V14.00,2013-05-07 02:26:00,
2013-05-06 19:30:00,62.0,55.8,29.79,North,0,0.0,3.0,80,0.00,,CLR,0.26,VWS V14.00,2013-05-07 02:30:00,
2013-05-06 19:31:00,62.1,55.9,29.79,North,0,0.0,1.0,80,0.00,,BKN070,0.26,VWS V14.00,2013-05-07 02:31:00,
2013-05-06 19:36:00,61.7,55.5,29.79,North,0,0.0,1.0,80,0.00,,BKN070,0.26,VWS V14.00,2013-05-07 02:36:00,
2013-05-06 19:41:00,61.7,55.8,29.79,North,0,0.0,1.0,81,0.00,,BKN070,0.26,VWS V14.00,2013-05-07 02:41:00,
2013-05-06 19:46:00,61.4,55.2,29.80,NW,322,0.0,1.0,80,0.00,,BKN080,0.26,VWS V14.00,2013-05-07 02:46:00,
2013-05-06 19:51:00,61.4,55.2,29.80,NW,316,0.0,1.0,80,0.00,,BKN080,0.26,VWS V14.00,2013-05-07 02:51:00,
2013-05-06 19:56:00,61.3,55.1,29.80,NNE,16,0.0,1.0,80,0.00,,BKN080,0.26,VWS V14.00,2013-05-07 02:56:00,
2013-05-06 20:00:00,61.3,55.1,29.80,North,0,0.0,1.0,80,0.00,,CLR,0.26,VWS V14.00,2013-05-07 03:00:00,
2013-05-06 20:01:00,61.2,55.0,29.80,NW,324,0.0,0.0,80,0.00,,BKN080,0.26,VWS V14.00,2013-05-07 03:01:00,
2013-05-06 20:06:00,61.2,55.0,29.80,NNW,328,0.0,0.0,80,0.00,,BKN080,0.26,VWS V14.00,2013-05-07 03:06:00,
2013-05-06 20:11:00,61.2,55.7,29.81,North,355,0.0,2.0,82,0.00,,BKN080,0.26,VWS V14.00,2013-05-07 03:11:00,
2013-05-06 20:16:00,60.8,54.9,29.81,North,0,0.0,2.0,81,0.00,,BKN080,0.26,VWS V14.00,2013-05-07 03:16:00,
2013-05-06 20:21:00,60.9,55.0,29.81,North,3,0.0,2.0,81,0.00,,BKN080,0.26,VWS V14.00,2013-05-07 03:21:00,
2013-05-06 20:26:00,60.8,54.9,29.81,NNE,24,0.0,2.0,81,0.00,,BKN080,0.26,VWS V14.00,2013-05-07 03:26:00,
2013-05-06 20:30:00,60.7,54.8,29.81,NNE,18,0.0,2.0,81,0.00,,CLR,0.26,VWS V14.00,2013-05-07 03:30:00,
2013-05-06 20:31:00,60.8,54.9,29.81,NNE,16,0.0,0.0,81,0.00,,BKN080,0.26,VWS V14.00,2013-05-07 03:31:00,
2013-05-06 20:36:00,60.9,55.0,29.82,North,11,0.0,2.0,81,0.00,,BKN080,0.26,VWS V14.00,2013-05-07 03:36:00,
2013-05-06 20:41:00,60.3,54.5,29.82,North,10,0.0,2.0,81,0.00,,BKN080,0.26,VWS V14.00,2013-05-07 03:41:00,
2013-05-06 20:46:00,60.6,55.4,29.83,North,10,0.0,2.0,83,0.00,,OVC070,0.26,VWS V14.00,2013-05-07 03:46:00,
2013-05-06 20:51:00,60.5,55.7,29.82,North,10,0.0,2.0,84,0.00,,OVC070,0.26,VWS V14.00,2013-05-07 03:51:00,
2013-05-06 20:56:00,60.4,54.5,29.83,North,10,0.0,2.0,81,0.00,,OVC070,0.26,VWS V14.00,2013-05-07 03:56:00,
2013-05-06 21:00:00,60.2,54.4,29.82,North,10,0.0,2.0,81,0.00,,CLR,0.26,VWS V14.00,2013-05-07 04:00:00,
2013-05-06 21:01:00,60.1,54.3,29.83,North,10,0.0,0.0,81,0.00,,OVC070,0.26,VWS V14.00,2013-05-07 04:01:00,
2013-05-06 21:06:00,60.4,55.2,29.84,North,10,0.0,0.0,83,0.00,,OVC070,0.26,VWS V14.00,2013-05-07 04:06:00,
2013-05-06 21:11:00,60.4,55.9,29.84,North,10,0.0,0.0,85,0.00,,OVC070,0.26,VWS V14.00,2013-05-07 04:11:00,
2013-05-06 21:16:00,60.4,54.9,29.84,North,10,0.0,0.0,82,0.00,,OVC070,0.26,VWS V14.00,2013-05-07 04:16:00,
2013-05-06 21:21:00,60.1,55.3,29.84,North,10,0.0,0.0,84,0.00,,OVC070,0.26,VWS V14.00,2013-05-07 04:21:00,
2013-05-06 21:26:00,60.3,55.8,29.85,North,10,0.0,0.0,85,0.00,,OVC070,0.26,VWS V14.00,2013-05-07 04:26:00,
2013-05-06 21:30:00,60.3,55.5,29.85,North,10,0.0,0.0,84,0.00,,CLR,0.26,VWS V14.00,2013-05-07 04:30:00,
2013-05-06 21:32:00,60.5,55.7,29.85,North,10,0.0,0.0,84,0.00,,OVC070,0.26,VWS V14.00,2013-05-07 04:32:00,
2013-05-06 21:37:00,60.5,55.0,29.85,North,9,0.0,1.0,82,0.00,,OVC070,0.26,VWS V14.00,2013-05-07 04:37:00,
2013-05-06 21:42:00,60.3,55.5,29.86,North,9,0.0,1.0,84,0.00,,OVC070,0.26,VWS V14.00,2013-05-07 04:42:00,
2013-05-06 21:47:00,60.4,55.2,29.85,North,9,0.0,1.0,83,0.00,,BKN044,0.26,VWS V14.00,2013-05-07 04:47:00,
2013-05-06 21:52:00,60.3,54.8,29.86,North,9,0.0,1.0,82,0.00,,BKN044,0.26,VWS V14.00,2013-05-07 04:52:00,
2013-05-06 21:57:00,60.2,55.0,29.86,North,9,0.0,1.0,83,0.00,,BKN044,0.26,VWS V14.00,2013-05-07 04:57:00,
2013-05-06 22:00:00,60.0,54.5,29.86,North,9,0.0,1.0,82,0.00,,CLR,0.26,VWS V14.00,2013-05-07 05:00:00,
2013-05-06 22:01:00,60.2,55.0,29.87,North,10,0.0,0.0,83,0.00,,BKN044,0.26,VWS V14.00,2013-05-07 05:01:00,
2013-05-06 22:06:00,60.1,54.9,29.87,North,9,0.0,0.0,83,0.00,,BKN044,0.26,VWS V14.00,2013-05-07 05:06:00,
2013-05-06 22:12:00,60.2,55.0,29.87,North,9,0.0,0.0,83,0.00,,BKN044,0.26,VWS V14.00,2013-05-07 05:12:00,
2013-05-06 22:16:00,60.1,55.3,29.87,North,9,0.0,0.0,84,0.00,,BKN044,0.26,VWS V14.00,2013-05-07 05:16:00,
2013-05-06 22:21:00,60.1,54.9,29.87,North,9,0.0,0.0,83,0.00,,BKN044,0.26,VWS V14.00,2013-05-07 05:21:00,
2013-05-06 22:27:00,59.9,54.7,29.87,North,9,0.0,1.0,83,0.00,,BKN044,0.26,VWS V14.00,2013-05-07 05:27:00,
2013-05-06 22:30:00,60.1,55.3,29.87,North,9,0.0,1.0,84,0.00,,CLR,0.26,VWS V14.00,2013-05-07 05:30:00,
2013-05-06 22:31:00,60.3,55.1,29.87,North,9,0.0,0.0,83,0.00,,BKN044,0.26,VWS V14.00,2013-05-07 05:31:00,
2013-05-06 22:36:00,60.1,55.3,29.87,North,9,0.0,0.0,84,0.00,,BKN044,0.26,VWS V14.00,2013-05-07 05:36:00,
2013-05-06 22:42:00,59.9,54.7,29.88,North,9,0.0,0.0,83,0.00,,BKN044,0.26,VWS V14.00,2013-05-07 05:42:00,
2013-05-06 22:47:00,60.0,54.8,29.87,North,10,0.0,0.0,83,0.00,,OVC042,0.26,VWS V14.00,2013-05-07 05:47:00,
2013-05-06 22:51:00,60.2,55.3,29.88,North,9,0.0,0.0,84,0.00,,OVC042,0.26,VWS V14.00,2013-05-07 05:51:00,
2013-05-06 22:57:00,59.9,55.1,29.88,North,9,0.0,0.0,84,0.00,,OVC042,0.26,VWS V14.00,2013-05-07 05:57:00,
2013-05-06 23:00:00,60.0,55.5,29.87,North,9,0.0,0.0,85,0.00,,CLR,0.26,VWS V14.00,2013-05-07 06:00:00,
2013-05-06 23:01:00,59.8,55.0,29.88,North,9,0.0,0.0,84,0.00,,OVC042,0.26,VWS V14.00,2013-05-07 06:01:00,
2013-05-06 23:06:00,59.6,55.1,29.88,North,9,0.0,0.0,85,0.00,,OVC042,0.26,VWS V14.00,2013-05-07 06:06:00,
2013-05-06 23:11:00,59.8,55.0,29.88,North,9,0.0,0.0,84,0.00,,OVC042,0.26,VWS V14.00,2013-05-07 06:11:00,
2013-05-06 23:16:00,59.6,55.1,29.88,North,9,0.0,0.0,85,0.00,,OVC042,0.26,VWS V14.00,2013-05-07 06:16:00,
2013-05-06 23:21:00,59.7,55.2,29.88,North,9,0.0,0.0,85,0.00,,OVC042,0.26,VWS V14.00,2013-05-07 06:21:00,
2013-05-06 23:26:00,59.7,55.5,29.88,North,9,0.0,0.0,86,0.00,,OVC042,0.26,VWS V14.00,2013-05-07 06:26:00,
2013-05-06 23:30:00,59.5,55.0,29.88,North,9,0.0,0.0,85,0.00,,CLR,0.26,VWS V14.00,2013-05-07 06:30:00,
2013-05-06 23:31:00,59.8,55.3,29.88,North,10,0.0,0.0,85,0.00,,OVC042,0.26,VWS V14.00,2013-05-07 06:31:00,
2013-05-06 23:36:00,59.6,55.1,29.88,North,0,0.0,1.0,85,0.00,,OVC042,0.26,VWS V14.00,2013-05-07 06:36:00,
2013-05-06 23:41:00,59.5,55.0,29.88,North,0,0.0,1.0,85,0.00,,OVC042,0.26,VWS V14.00,2013-05-07 06:41:00,
2013-05-06 23:46:00,59.5,55.0,29.88,North,0,0.0,1.0,85,0.00,,OVC060,0.26,VWS V14.00,2013-05-07 06:46:00,
2013-05-06 23:51:00,59.3,54.8,29.88,North,0,0.0,1.0,85,0.00,,OVC060,0.26,VWS V14.00,2013-05-07 06:51:00,
2013-05-06 23:57:00,59.5,55.3,29.88,North,0,0.0,1.0,86,0.00,,OVC060,0.26,VWS V14.00,2013-05-07 06:57:00,